Hourly Data Report for September 25, 2017

All times are specified in Local Standard Time (LST). Add 1 hour to adjust for Daylight Saving Time where and when it is observed.

EUREKA CLIMATE
NUNAVUT

79°59'21.000" N
85°56'02.000" W
10.00 m
2401199
71613
NEK

Download Data

Hourly Data (September 2017)
Hourly Data Report for September 25, 2017
Temp Definition
°C
Dew Point Temp Definition
°C
Rel Hum Definition
%
Wind Dir Definition
10's deg

Wind Spd Definition
km/h
Visibility Definition
km
Stn Press Definition
kPa
Hmdx Definition


Wind Chill Definition


Weather Definition


TIME
00:00 -16.5 -17.5 92 4 2   101.35   -18 LegendNANA
01:00 -14.9 -16.0 92 2 8   101.29   -20 LegendNANA
02:00 -13.5 -14.5 92 7 2   101.27   -15 LegendNANA
03:00 -13.1 -14.0 93 4 1   101.27   -14 LegendNANA
04:00 -13.8 -14.7 92 12 4   101.25   -17 LegendNANA
05:00 -13.7 -14.7 92 12 4   101.23   -16 LegendNANA
06:00 -13.7 -14.7 92 11 6   101.19   -18 LegendNANA
07:00 -13.0 -13.9 93 11 6   101.17   -17 LegendNANA
08:00 -12.4 -13.2 94 10 4   101.16   -15 LegendNANA
09:00 -12.1 -12.9 94 11 9   101.14   -17 LegendNANA
10:00 -12.3 -13.1 94 11 9   101.15   -18 LegendNANA
11:00 -11.3 -12.0 95 5 4   101.15   -14 LegendNANA
12:00 -11.5 -11.9 97 5 3   101.13   -13 LegendNANA
13:00 -13.1 -14.1 92 13 5   101.15   -16 LegendNANA
14:00 -11.7 -12.5 94 9 5   101.20   -15 LegendNANA
15:00 -11.4 -12.1 95 6 4   101.25   -14 LegendNANA
16:00 -11.2 -11.9 95 10 8   101.29   -16 LegendNANA
17:00 -12.0 -12.7 94 1 9   101.30   -17 LegendNANA
18:00 -14.5 -15.4 93 2 8   101.32   -20 LegendNANA
19:00 -15.9 -17.1 90 2 5   101.32   -20 LegendNANA
20:00 -14.5 -15.5 92 8 2   101.33   -16 LegendNANA
21:00 -16.1 -17.3 90 10 2   101.34   -18 LegendNANA
22:00 -17.4 -18.6 90 5 7   101.34   -23 LegendNANA
23:00 -17.7 -19.1 89 4 6   101.35   -22 LegendNANA

Notes on Data Quality.

Legend

  • E = Estimated
  • M = Missing
  • NA = Not Available
  • ‡ = Partner data that is not subject to review by the National Climate Archives
Date modified: